Camarillo, CA

9:14 AM PST on December 04, 2016 (GMT -0800)
Camarillo

Weather History for KCMA - June, 2014

Change the Weather History Date:

Monday, June 9, 2014

  Actual Average Record
Temperature  
Mean Temperature 65 °F 64 °F  
Max Temperature 73 °F 72 °F 79 °F (1974)
Min Temperature 57 °F 56 °F 46 °F (1965)
Degree Days  
Heating Degree Days 0 2  
Month to date heating degree days 7 18  
Since 1 June heating degree days 7 18  
Since 1 July heating degree days 1310 1961  
Cooling Degree Days 0 0  
Month to date cooling degree days 0 0  
Year to date cooling degree days 148 31  
Since 1 June cooling degree days 0 0  
Growing Degree Days 16 (Base 50)    
Moisture  
Dew Point 57 °F    
Average Humidity 73    
Maximum Humidity 84    
Minimum Humidity 61    
Precipitation  
Precipitation 0.00 in 0.00 in 0.12 in (1957)
Month to date precipitation 0.00 0.03  
Year to date precipitation 4.19 10.96  
Since 1 July precipitation 5.01  
Sea Level Pressure  
Sea Level Pressure 29.80 in    
Wind  
Wind Speed 5 mph (WSW)    
Max Wind Speed 9 mph    
Max Gust Speed -    
Visibility 7 miles    
Events      
T = Trace of Precipitation, MM = Missing Value Source: NWS Daily Summary

Daily Weather History Graph

Daily Weather History Graph

Search for Another Location

Airport or City:

Trip Planner

Search our weather history database for the weather conditions in past years. The results will help you decide how hot, cold, wet, or windy it might be!

Date:

Astronomy

Jun. 09, 2014 Rise Set
Actual Time 5:44 AM PDT 8:07 PM PDT
Civil Twilight 5:14 AM PDT 8:36 PM PDT
Nautical Twilight 4:39 AM PDT 9:12 PM PDT
Astronomical Twilight 3:59 AM PDT 9:51 PM PDT
Moon 4:41 PM PDT (6/9) 3:04 AM PDT (6/9)
Length of Visible Light 15h 21m
Length of Day
14h 23m
Waxing Gibbous, 86% of the Moon is Illuminated
Jun 9
Waxing Gibbous
Jun 12
Full
Jun 19
Last Quarter
Jun 27
New
Jul 5
First Quarter

Hourly Weather History & Observations

Time (PDT) Temp. Dew Point Humidity Pressure Visibility Wind Dir Wind Speed Gust Speed Precip Events Conditions
12:55 AM - - N/A% 29.80 in 6.0 mi Calm Calm - N/A   Haze
1:11 AM - - N/A% 29.80 in 7.0 mi West 3.5 mph - N/A   Overcast
1:53 AM - - N/A% 29.80 in 6.0 mi WSW 3.5 mph - N/A   Haze
1:55 AM - - N/A% 29.80 in 5.0 mi WSW 3.5 mph - N/A   Haze
2:55 AM - - N/A% 29.79 in 5.0 mi West 3.5 mph - N/A   Haze
3:55 AM - - N/A% 29.78 in 5.0 mi Calm Calm - N/A   Haze
4:55 AM - - N/A% 29.78 in 5.0 mi Calm Calm - N/A   Haze
5:20 AM - - N/A% 29.78 in 4.0 mi Calm Calm - N/A   Haze
5:55 AM - - N/A% 29.79 in 3.0 mi Calm Calm - N/A   Overcast
6:24 AM - - N/A% 29.80 in 2.5 mi Calm Calm - N/A   Overcast
6:55 AM - - N/A% 29.80 in 3.0 mi Calm Calm - N/A   Overcast
7:02 AM - - N/A% 29.80 in 2.5 mi Calm Calm - N/A   Overcast
8:02 AM - - N/A% 29.81 in 3.0 mi Calm Calm - N/A   Overcast
8:23 AM 60.8 °F 57.2 °F 88% 29.81 in 3.0 mi Calm Calm - N/A   Overcast
8:55 AM 60.1 °F 57.0 °F 90% 29.84 in 4.0 mi Calm Calm - N/A   Overcast
9:55 AM 60.1 °F 55.9 °F 86% 29.83 in 6.0 mi SW 6.9 mph - N/A   Overcast
10:55 AM 61.0 °F 55.9 °F 83% 29.83 in 9.0 mi West 6.9 mph - N/A   Overcast
11:13 AM 62.6 °F 57.2 °F 82% 29.83 in 8.0 mi SW 5.8 mph - N/A   Overcast
11:21 AM 64.4 °F 57.2 °F 77% 29.83 in 9.0 mi West 5.8 mph - N/A   Overcast
1:55 PM 70.0 °F 57.9 °F 65% 29.80 in 10.0 mi SSW 9.2 mph - N/A   Clear
2:55 PM 71.1 °F 57.9 °F 63% 29.79 in 10.0 mi SW 9.2 mph - N/A   Clear
3:55 PM 72.0 °F 57.9 °F 61% 29.76 in 10.0 mi WNW 8.1 mph - N/A   Clear
4:55 PM 72.0 °F 57.9 °F 61% 29.74 in 10.0 mi WSW 5.8 mph - N/A   Clear
5:55 PM 69.1 °F 57.9 °F 68% 29.75 in 10.0 mi WSW 9.2 mph - N/A   Clear
6:40 PM 64.4 °F 57.2 °F 77% 29.76 in 10.0 mi SW 10.4 mph - N/A   Mostly Cloudy
6:55 PM 64.0 °F 57.0 °F 78% 29.76 in 10.0 mi SSW 8.1 mph - N/A   Overcast
7:34 PM 62.6 °F 57.2 °F 82% 29.77 in 10.0 mi WSW 6.9 mph - N/A   Overcast
7:55 PM 62.1 °F 57.0 °F 84% 29.77 in 10.0 mi SW 6.9 mph - N/A   Overcast
8:18 PM 62.6 °F 57.2 °F 82% 29.77 in 10.0 mi SSW 6.9 mph - N/A   Overcast
8:55 PM 63.0 °F 57.9 °F 84% 29.81 in 10.0 mi Calm Calm - N/A   Overcast
9:13 PM 62.6 °F 57.2 °F 82% 29.79 in 10.0 mi SW 4.6 mph - N/A   Overcast
9:55 PM 63.0 °F 57.9 °F 84% 29.83 in 10.0 mi Calm Calm - N/A   Overcast
10:55 PM 62.1 °F 57.9 °F 86% 29.84 in 10.0 mi Calm Calm - N/A   Overcast
11:55 PM 62.1 °F 57.9 °F 86% 29.83 in 10.0 mi SSW 3.5 mph - N/A   Overcast